{"data":{"norad_id":66967,"epoch":"2026-09-20T07:33:06.305184Z","epoch_age_seconds":97687,"freshness":"FRESH","line1":"1 66967U 25288J   26263.31465631  .00012655  00000+0  46845-3 0  9995","line2":"2 66967  43.0029   4.2371 0002089 267.6059  92.4553 15.27591830 45058","mean_motion":15.2759183,"eccentricity":0.0002089,"inclination_deg":43.0029,"raan_deg":4.2371,"arg_perigee_deg":267.6059,"mean_anomaly_deg":92.4553,"bstar":0.00046845,"rev_number":4505,"period_min":94.266018691655,"perigee_km":481.58037861685,"apogee_km":484.44696736803,"semimajor_km":6861.1506729924,"source":"CELESTRAK","updated_at":"2026-09-21T09:00:36.063638Z"}}